This demonstration page uses our WeatherBlox Daily Observations layout. Learn more.

Left ArrowRight Arrow

Hourly Observations for September 26, 2021

Temp ( °F °C ) Dew Point ( °F °C ) Humidity (%) Winds ( mph kmh ) Pressure ( in mb ) Visibility ( mi km ) Precip ( " mm )
12:52 am 00:52 Mostly Clear 62 16.7 48 8.9 60 60 SSE 13 20 29.90 1013 10 16 0.00 0.00
1:52 am 01:52 Mostly Clear 60 15.6 48 8.9 65 65 SSE 12 19 29.89 1012 10 16 0.00 0.00
2:52 am 02:52 Mostly Clear 58 14.4 49 9.4 72 72 SSE 9 15 29.88 1012 10 16 0.00 0.00
3:52 am 03:52 Clear 56 13.3 48 8.9 75 75 SSE 9 15 29.87 1012 10 16 0.00 0.00
4:52 am 04:52 Clear 56 13.3 49 9.4 77 77 SSE 9 15 29.86 1011 10 16 0.00 0.00
5:52 am 05:52 Clear 57 13.9 49 9.4 74 74 SSE 9 15 29.84 1011 10 16 0.00 0.00
6:52 am 06:52 Clear 58 14.4 49 9.4 72 72 SSE 9 15 29.84 1010 10 16 0.00 0.00
7:52 am 07:52 Mostly Sunny 59 15 49 9.4 69 69 SSE 9 15 29.84 1010 10 16 0.00 0.00
8:52 am 08:52 Mostly Sunny 64 17.8 48 8.9 56 56 S 12 19 29.83 1010 10 16 0.00 0.00
9:52 am 09:52 Mostly Sunny 67 19.4 49 9.4 53 53 SSE 13 20 29.82 1010 10 16 0.00 0.00
10:52 am 10:52 Mostly Sunny 71 21.7 50 10 47 47 S 12 19 29.80 1009 10 16 0.00 0.00
11:52 am 11:52 Mostly Sunny 76 24.4 51 10.6 42 42 SSE 8 13 29.77 1008 10 16 0.00 0.00
12:52 pm 12:52 Mostly Sunny 80 26.7 52 11.1 38 38 SSW 13 20 29.76 1008 10 16 0.00 0.00
1:52 pm 13:52 Mostly Sunny 83 28.3 51 10.6 33 33 S 8 13 29.73 1007 10 16 0.00 0.00
2:52 pm 14:52 Mostly Sunny 86 30 51 10.6 30 30 S 14 22 29.70 1006 10 16 0.00 0.00
3:52 pm 15:52 Sunny 88 31.1 52 11.1 29 29 S 12 19 29.68 1005 10 16 0.00 0.00
4:52 pm 16:52 Sunny 89 31.7 52 11.1 28 28 S 10 17 29.68 1005 10 16 0.00 0.00
5:52 pm 17:52 Sunny 88 31.1 53 11.7 30 30 S 9 15 29.67 1005 10 16 0.00 0.00
6:52 pm 18:52 Sunny 85 29.4 54 12.2 35 35 S 6 9 29.67 1005 10 16 0.00 0.00
7:52 pm 19:52 Clear 70 21.1 57 13.9 64 64 NNW 6 9 29.69 1005 10 16 0.00 0.00
8:52 pm 20:52 Clear 72 22.2 58 14.4 61 61 SSE 3 6 29.69 1005 10 16 0.00 0.00
9:52 pm 21:52 Clear 69 20.6 58 14.4 68 68 S 5 7 29.69 1005 10 16 0.00 0.00
10:52 pm 22:52 Clear 70 21.1 58 14.4 66 66 SSE 6 9 29.70 1006 10 16 0.00 0.00
11:52 pm 23:52 Clear 69 20.6 55 12.8 61 61 SE 10 17 29.70 1006 10 16 0.00 0.00

Powered by AerisWeather